Location: Roc des P�zouls
(43.9667°N, 3.5500°E)
Time: 19:47:33
(UTC+00:00)

CZ-4B R/B - Pass Details

Date: 14 November 2019
Orbit: 486 x 653 km, 97.8° (Epoch: 05 December)

Event Time Altitude Azimuth Distance (km) Brightness Sun altitude
Rises 05:33:29 0° 355° (N) 2,570 6.0 -11.9°
Reaches altitude 10° 05:36:09 10° 333° (NNW) 1,680 4.9 -11.4°
Enters shadow 05:38:09 16° 300° (WNW) 1,356 4.2 -11.1°
